N8079S PHNL-PHNL

Flight info

Callsign N8079S
Flight time 0h 0m
Altitude VFR
Route
Aircraft C150/L-VGD/C

Departure

Time 2026-05-08 02:47
Airport Daniel K. Inouye International Airport (PHNL)

Arrival

Time 2026-05-08 02:47
Airport Daniel K. Inouye International Airport (PHNL)
Time Latitude Longitude Altitude Speed Heading
2026-05-08 02:37 21.32301 -157.91106 10 ft 0 kts 58°
2026-05-08 02:40 21.32302 -157.91104 10 ft 3 kts 56°
2026-05-08 02:40 21.32351 -157.91128 10 ft 8 kts 297°
2026-05-08 02:40 21.32300 -157.91220 9 ft 17 kts 237°
2026-05-08 02:40 21.32227 -157.91323 8 ft 16 kts 229°
2026-05-08 02:41 21.32160 -157.91415 9 ft 16 kts 235°
2026-05-08 02:41 21.32095 -157.91507 10 ft 16 kts 235°
2026-05-08 02:41 21.32026 -157.91605 10 ft 17 kts 232°
2026-05-08 02:41 21.31936 -157.91680 13 ft 16 kts 213°
2026-05-08 02:42 21.31858 -157.91765 13 ft 17 kts 233°
2026-05-08 02:42 21.31781 -157.91867 11 ft 18 kts 246°
2026-05-08 02:42 21.31717 -157.91965 11 ft 16 kts 234°
2026-05-08 02:42 21.31641 -157.92069 9 ft 19 kts 231°
2026-05-08 02:43 21.31570 -157.92172 7 ft 3 kts 227°
2026-05-08 02:43 21.31551 -157.92198 7 ft 15 kts 236°
2026-05-08 02:43 21.31451 -157.92343 6 ft 30 kts 232°
2026-05-08 02:43 21.31330 -157.92513 9 ft 22 kts 230°
2026-05-08 02:44 21.31300 -157.92624 10 ft 15 kts 321°
2026-05-08 02:44 21.31331 -157.92648 11 ft 0 kts 322°
2026-05-08 02:46 21.31380 -157.92686 12 ft 16 kts 327°
2026-05-08 02:46 21.31473 -157.92603 10 ft 34 kts 53°
2026-05-08 02:46 21.31695 -157.92269 55 ft 65 kts 56°
2026-05-08 02:46 21.31955 -157.91883 252 ft 59 kts 42°
2026-05-08 02:47 21.32215 -157.91547 478 ft 57 kts 47°
2026-05-08 02:47 21.32452 -157.91213 737 ft 56 kts 51°
2026-05-08 02:47 21.32655 -157.90916 923 ft 47 kts 46°
2026-05-08 02:47 21.32861 -157.90621 1047 ft 50 kts 48°
2026-05-08 02:48 21.33122 -157.90236 1057 ft 82 kts 59°
2026-05-08 02:48 21.33119 -157.89587 1044 ft 105 kts 123°
2026-05-08 02:48 21.32500 -157.89181 1158 ft 104 kts 150°
2026-05-08 02:48 21.31856 -157.89448 1262 ft 105 kts 239°
2026-05-08 02:49 21.31473 -157.90225 1064 ft 131 kts 246°
2026-05-08 02:49 21.31014 -157.91026 1068 ft 123 kts 236°
2026-05-08 02:49 21.30477 -157.91722 1034 ft 128 kts 234°
2026-05-08 02:49 21.29987 -157.92423 1164 ft 106 kts 239°
2026-05-08 02:50 21.29659 -157.93141 1241 ft 104 kts 264°
2026-05-08 02:50 21.29754 -157.93750 1268 ft 69 kts 332°
2026-05-08 02:50 21.30137 -157.94021 1126 ft 76 kts 341°
2026-05-08 02:50 21.30636 -157.94068 988 ft 73 kts 33°
2026-05-08 02:51 21.30940 -157.93612 641 ft 77 kts 52°
2026-05-08 02:51 21.31220 -157.93196 376 ft 60 kts 44°
2026-05-08 02:51 21.31467 -157.92856 229 ft 62 kts 44°
2026-05-08 02:51 21.31718 -157.92493 107 ft 59 kts 44°
2026-05-08 02:52 21.31957 -157.92157 29 ft 48 kts 45°
2026-05-08 02:52 21.32103 -157.91952 15 ft 27 kts 50°
2026-05-08 02:52 21.32267 -157.91671 84 ft 55 kts 52°
2026-05-08 02:52 21.32475 -157.91317 274 ft 55 kts 53°
2026-05-08 02:53 21.32658 -157.91052 424 ft 40 kts 28°
2026-05-08 02:53 21.32843 -157.90874 516 ft 37 kts 34°
2026-05-08 02:53 21.33065 -157.90644 658 ft 52 kts 40°
2026-05-08 02:53 21.33279 -157.90295 897 ft 57 kts 52°
2026-05-08 02:54 21.33628 -157.90061 991 ft 80 kts 355°
2026-05-08 02:54 21.33993 -157.90596 1039 ft 90 kts 302°
2026-05-08 02:54 21.33975 -157.91292 1049 ft 113 kts 246°
2026-05-08 02:54 21.33389 -157.91954 964 ft 129 kts 222°
2026-05-08 02:55 21.32763 -157.92601 972 ft 123 kts 229°
2026-05-08 02:55 21.31681 -157.93928 1064 ft 96 kts 202°
2026-05-08 02:55 21.31203 -157.93867 917 ft 59 kts 117°
2026-05-08 02:56 21.30949 -157.93552 702 ft 38 kts 65°
2026-05-08 02:56 21.31137 -157.93319 400 ft 53 kts 46°
2026-05-08 02:56 21.31358 -157.92997 358 ft 55 kts 44°
2026-05-08 02:56 21.31586 -157.92662 208 ft 46 kts 45°
2026-05-08 02:57 21.31772 -157.92424 83 ft 39 kts 37°
2026-05-08 02:57 21.31918 -157.92207 26 ft 30 kts 46°
2026-05-08 02:57 21.32071 -157.92000 15 ft 52 kts 50°
2026-05-08 02:57 21.32316 -157.91624 149 ft 62 kts 45°
2026-05-08 02:58 21.32551 -157.91295 385 ft 48 kts 43°
2026-05-08 02:58 21.32718 -157.91037 513 ft 40 kts 41°
2026-05-08 02:58 21.32905 -157.90794 605 ft 48 kts 34°
2026-05-08 02:58 21.33146 -157.90514 807 ft 58 kts 41°
2026-05-08 02:59 21.33512 -157.90281 987 ft 71 kts
2026-05-08 02:59 21.33831 -157.90752 1082 ft 86 kts 300°
2026-05-08 02:59 21.34013 -157.91391 1137 ft 99 kts 274°
2026-05-08 02:59 21.33625 -157.92074 1085 ft 121 kts 225°
2026-05-08 03:00 21.33004 -157.92691 954 ft 125 kts 225°
2026-05-08 03:00 21.32440 -157.93351 1033 ft 114 kts 230°
2026-05-08 03:00 21.31948 -157.93951 1168 ft 103 kts 230°
2026-05-08 03:00 21.31429 -157.94402 1062 ft 86 kts 178°
2026-05-08 03:01 21.31031 -157.94180 957 ft 58 kts 134°
2026-05-08 03:01 21.30731 -157.93914 898 ft 50 kts 95°
2026-05-08 03:01 21.30846 -157.93538 666 ft 50 kts 51°
2026-05-08 03:01 21.31021 -157.93228 355 ft 49 kts 45°
2026-05-08 03:02 21.31263 -157.92893 136 ft 64 kts 46°
2026-05-08 03:02 21.31515 -157.92533 41 ft 50 kts 46°
2026-05-08 03:02 21.31683 -157.92305 8 ft 28 kts 58°
2026-05-08 03:02 21.31713 -157.92206 8 ft 0 kts 153°
2026-05-08 03:03 21.31683 -157.92186 7 ft 13 kts 140°
2026-05-08 03:03 21.31620 -157.92113 7 ft 12 kts 80°
2026-05-08 03:03 21.31662 -157.92041 10 ft 11 kts 47°
2026-05-08 03:03 21.31705 -157.91983 11 ft 10 kts 49°
2026-05-08 03:04 21.31748 -157.91921 12 ft 11 kts 53°
2026-05-08 03:04 21.31803 -157.91842 11 ft 18 kts 51°
2026-05-08 03:04 21.31878 -157.91736 13 ft 16 kts 53°
2026-05-08 03:04 21.31964 -157.91659 12 ft 18 kts 35°
2026-05-08 03:05 21.32053 -157.91568 10 ft 17 kts 54°
2026-05-08 03:05 21.32114 -157.91480 10 ft 13 kts 51°
2026-05-08 03:05 21.32186 -157.91376 9 ft 23 kts 54°
2026-05-08 03:05 21.32196 -157.91298 8 ft 4 kts 144°
2026-05-08 03:06 21.32151 -157.91263 8 ft 12 kts 78°
2026-05-08 03:06 21.32161 -157.91246 8 ft 0 kts 55°